TimeEST,TemperatureF,Dew PointF,Humidity,Sea Level PressureIn,VisibilityMPH,Wind Direction,Wind SpeedMPH,Gust SpeedMPH,PrecipitationIn,Events,Conditions,WindDirDegrees,DateUTC
12:56 AM,60.1,57.9,93,30.16,-9999.0,SSW,5.8,-,N/A,,Clear,200,2013-01-30 05:56:00
1:56 AM,60.1,57.9,93,30.13,-9999.0,South,5.8,-,0.01,,Clear,190,2013-01-30 06:56:00
2:28 AM,57.2,55.4,94,30.11,-9999.0,South,3.5,-,N/A,,Scattered Clouds,170,2013-01-30 07:28:00
2:38 AM,57.2,55.4,94,30.11,-9999.0,South,4.6,-,N/A,,Mostly Cloudy,180,2013-01-30 07:38:00
2:53 AM,57.2,57.2,100,30.10,-9999.0,South,5.8,-,N/A,,Scattered Clouds,190,2013-01-30 07:53:00
2:56 AM,59.0,57.0,93,30.12,-9999.0,South,5.8,-,N/A,,Scattered Clouds,180,2013-01-30 07:56:00
3:56 AM,60.1,59.0,96,30.10,-9999.0,South,5.8,-,N/A,,Scattered Clouds,190,2013-01-30 08:56:00
4:56 AM,62.1,60.1,93,30.09,-9999.0,South,5.8,-,N/A,,Clear,190,2013-01-30 09:56:00
5:56 AM,64.9,61.0,87,30.08,-9999.0,SSW,10.4,-,N/A,,Clear,200,2013-01-30 10:56:00
7:56 AM,64.9,62.1,90,30.09,-9999.0,South,6.9,44.9,N/A,,Clear,190,2013-01-30 12:56:00
8:56 AM,70.0,63.0,78,30.06,-9999.0,South,15.0,23.0,N/A,,Clear,190,2013-01-30 13:56:00
9:56 AM,73.0,63.0,71,30.05,-9999.0,South,19.6,29.9,N/A,,Clear,190,2013-01-30 14:56:00
10:56 AM,73.9,63.0,68,30.03,-9999.0,SSW,24.2,32.2,N/A,,Clear,200,2013-01-30 15:56:00
11:54 AM,75.2,62.6,65,29.99,-9999.0,SSW,20.7,36.8,N/A,,Mostly Cloudy,200,2013-01-30 16:54:00
11:56 AM,75.9,63.0,64,30.00,-9999.0,South,21.9,36.8,N/A,,Mostly Cloudy,190,2013-01-30 16:56:00
12:56 PM,73.9,63.0,68,29.96,-9999.0,South,24.2,35.7,N/A,,Overcast,190,2013-01-30 17:56:00
1:56 PM,73.0,63.0,71,29.94,-9999.0,South,20.7,29.9,N/A,,Overcast,190,2013-01-30 18:56:00
2:04 PM,73.4,62.6,69,29.92,-9999.0,South,19.6,28.8,N/A,,Overcast,190,2013-01-30 19:04:00
2:15 PM,73.4,62.6,69,29.91,-9999.0,SSW,19.6,32.2,N/A,,Mostly Cloudy,200,2013-01-30 19:15:00
2:56 PM,73.0,63.0,71,29.92,-9999.0,South,23.0,34.5,N/A,,Overcast,190,2013-01-30 19:56:00
3:26 PM,71.6,62.6,73,29.89,-9999.0,South,21.9,31.1,N/A,,Mostly Cloudy,190,2013-01-30 20:26:00
3:33 PM,73.4,62.6,69,29.89,-9999.0,South,18.4,32.2,N/A,,Mostly Cloudy,190,2013-01-30 20:33:00
3:56 PM,73.0,63.0,71,29.89,-9999.0,South,21.9,28.8,N/A,,Partly Cloudy,190,2013-01-30 20:56:00
4:56 PM,71.1,62.1,73,29.87,-9999.0,South,17.3,27.6,N/A,,Mostly Cloudy,180,2013-01-30 21:56:00
5:56 PM,69.1,62.1,78,29.84,-9999.0,South,19.6,28.8,N/A,,Clear,180,2013-01-30 22:56:00
6:56 PM,68.0,62.1,81,29.83,-9999.0,South,15.0,23.0,N/A,,Clear,180,2013-01-30 23:56:00
7:56 PM,70.0,62.1,76,29.80,-9999.0,South,20.7,31.1,N/A,,Overcast,180,2013-01-31 00:56:00
8:56 PM,70.0,62.1,76,29.76,-9999.0,South,18.4,34.5,N/A,,Scattered Clouds,180,2013-01-31 01:56:00
9:56 PM,69.1,62.1,78,29.74,-9999.0,South,18.4,29.9,N/A,,Mostly Cloudy,180,2013-01-31 02:56:00
10:56 PM,71.1,63.0,75,29.72,-9999.0,South,23.0,39.1,N/A,,Overcast,190,2013-01-31 03:56:00
11:56 PM,71.1,63.0,75,29.67,-9999.0,South,25.3,33.4,N/A,,Overcast,190,2013-01-31 04:56:00